Regional Weather Roundup
Issued by NWS

Home | Current Version | Previous Version | Text Only | Print | Product List | Glossary On
Versions: 1 2 3 4 5 6 7 8 9 10 11 12 13 14 15 16 17 18 19 20 21 22 23 24 25 26 27 28 29 30 31 32 33 34 35 36 37 38 39 40 41 42 43 44 45 46 47 48 49 50
000
ASUS45 KBOU 270907
RWRCO

WEATHER ROUNDUP FOR COLORADO
NATIONAL WEATHER SERVICE DENVER/BOULDER CO
300 AM MDT WED AUG 27 2014

NOTE: "FAIR" INDICATES FEW OR NO CLOUDS BELOW 12000 FEET WITH NO
SIGNIFICANT WEATHER AND/OR OBSTRUCTIONS TO VISIBILITY.

COZ001>005-013-030-031-271000-
...NORTHWEST COLORADO...

CITY           SKY/WX    TMP DP  RH WIND       PRES   REMARKS
CRAIG          CLOUDY    55  51  86 W7        30.26S
HAYDEN         CLOUDY    55  46  71 NW7       30.28R
MEEKER         RAIN      54  52  93 CALM      30.29F FOG
MOUNT WERNER   NOT AVBL
STEAMBOAT SPGS CLOUDY    51  49  92 CALM      30.28R
WALDEN         CLOUDY    50  43  76 CALM      30.33F
$$

COZ006>008-011-271000-
...WEST CENTRAL VALLEYS...

CITY           SKY/WX    TMP DP  RH WIND       PRES   REMARKS
GRAND JUNCTION CLOUDY    58  55  90 SE9       30.21F
MONTROSE       CLOUDY    56  55  97 N3        30.28F
EAGLE          CLOUDY    55  54  94 CALM      30.31R
RIFLE          LGT RAIN  55  54  96 CALM      30.25F
DELTA          RAIN      58  56  94 CALM      30.25F
NUCLA          MOCLDY    54  52  94 CALM      30.31S
$$

COZ017>023-064>068-271000-
...SOUTHWEST COLORADO...

CITY           SKY/WX    TMP DP  RH WIND       PRES   REMARKS
DURANGO        MOCLDY    53  52  96 W3        30.31S
CORTEZ         CLEAR     50  50 100 CALM      30.30R
PAGOSA SPRINGS MOCLDY    54  54 100 CALM      30.36S
TELLURIDE      MOCLDY    48  45  87 E5        30.41F
WOLF CREEK PAS CLOUDY    37  37 100 SW20      30.55F FOG
$$

COZ009-010-012-014-032>034-037-058>063-271000-
...CENTRAL COLORADO...

CITY           SKY/WX    TMP DP  RH WIND       PRES   REMARKS
ASPEN          RAIN      51  50  96 CALM      30.34R FOG
BUENA VISTA    CLOUDY    52  48  88 W6        30.35F
COPPER MTN     CLOUDY    45  37  76 S14       30.55F
BERTHOUD PASS  FOG       36  34  93 E18       30.60S VSB 1/2
COTTONWOOD PAS LGT RAIN  50  46  87 W5        30.44F
GUNNISON       CLOUDY    52  46  82 SE5       30.36F
KREMMLING      CLOUDY    52  46  82 CALM      30.32S
LEADVILLE      LGT RAIN  44  43  96 W5        30.43F
MONARCH PASS   RAIN      39  37  93 W28G33    30.65F VSB 1/4
SALIDA         CLOUDY    56  53  89 CALM      30.40S
SUNLIGHT       RAIN      43  43 100 CALM      30.50F
WILKERSON PASS NOT AVBL
$$

COZ069>075-271000-
...SAN LUIS VALLEY/SANGRE DE CRISTO MOUNTAINS...

CITY           SKY/WX    TMP DP  RH WIND       PRES   REMARKS
ALAMOSA        CLOUDY    53  51  93 NE5       30.31F
LA VETA PASS   NOT AVBL
SAGUACHE       CLOUDY    52  52 100 SE5       30.36S
$$

COZ035-036-038>040-271000-
...NORTHERN COLORADO FRONT RANGE...

CITY           SKY/WX    TMP DP  RH WIND       PRES   REMARKS
DENVER INTL AP LGT RAIN  61  56  83 S8        30.17F
DMNS CITY PARK   N/A     60  57  87 W3        30.17F
AURORA         CLOUDY    60  57  89 SW10      30.19F
FRONT RANGE AP CLOUDY    63  59  88 CALM      30.19F
ERIE MUNI ARPT CLOUDY    64  53  68 SW6       30.17F
BOULDER MUN AP CLOUDY    63  54  72 CALM      30.18S
CENTENNIAL     CLOUDY    60  55  83 SW8       30.20F
BROOMFIELD     CLOUDY    63  54  72 SW6       30.21S
FORT COLLINS   PTCLDY    61  55  82 N3        30.18F
LONGMONT       CLOUDY    62  56  81 CALM      30.19F
$$

COZ041-046-047-076>085-087-088-271000-
...PIKES PEAK/PALMER DIVIDE AND SOUTHERN FOOTHILLS...

CITY           SKY/WX    TMP DP  RH WIND       PRES   REMARKS
COLO. SPRINGS  PTCLDY    60  54  80 N3        30.23F
A. F. ACADEMY  PTCLDY    55  54  99 NW6       30.25F
ELLICOTT       MOCLDY    58  55  90 CALM      30.22F
FALCON         PTCLDY    54  53  96 NW3       30.28F
FORT CARSON    PTCLDY    56  52  87 NW2       30.21F
LIMON          PTCLDY    56  55  97 CALM      30.20F
MONUMENT HILL  MOCLDY    52  50  93 S5        30.27F
TRINIDAD       MOCLDY    61  55  81 W9        30.21F
$$

COZ042>045-048>051-090-091-271000-
...NORTHEAST COLORADO...

CITY           SKY/WX    TMP DP  RH WIND       PRES   REMARKS
GREELEY ARPT   MOCLDY    61  50  67 CALM      30.17R
AKRON          MOCLDY    63  59  87 S7        30.16F
BURLINGTON     PTCLDY    62  60  93 S3        30.16F
WRAY             N/A     63  63 100 CALM      30.15R
STERLING       MOCLDY    68  63  83 SW8       30.12S
HOLYOKE        CLOUDY    64  61  88 S5        30.13F
FORT MORGAN    MOCLDY    60  57  89 W3        30.15S
$$

COZ086-089-092>099-271000-
...SOUTHEAST COLORADO...

CITY           SKY/WX    TMP DP  RH WIND       PRES   REMARKS
PUEBLO         PTCLDY    62  57  83 CALM      30.15F
LA JUNTA       CLOUDY    64  63  96 SE6       30.13F
LAMAR          MOCLDY    65  63  93 SE10      30.11F
SPRINGFIELD      N/A     63  62  97 S6        30.15F
$$


USA.gov is the U.S. government's official web portal to all federal, state and local government web resources and services.